"America/Chicago Time","Lifetime Energy (kWh)","Power (W)","AC Volts RMS (V) ","AC Amps RMS (mA)","Grid Frequency (Hz)","Inverter Temperature (C)"
"08/06/12 09:54:29","157.8099","126.1","215.85","588","60.0","30"
"08/06/12 09:59:29","157.8197","126.9","215.0","593","60.03","31"
"08/06/12 10:04:30","157.8297","128.8","215.46","600","60.03","32"
"08/06/12 10:09:29","157.8398","131.2","215.04","613","60.03","32"
"08/06/12 10:14:28","157.8501","134.8","215.58","627","60.0","32"
"08/06/12 10:19:30","157.8606","133.9","215.49","624","60.03","32"
"08/06/12 10:24:30","157.8712","136.2","214.99","630","60.0","33"
"08/06/12 10:29:29","157.8819","139.1","215.19","646","60.03","33"
"08/06/12 10:34:30","157.8929","140.9","215.92","654","60.0","33"
"08/06/12 10:39:30","157.9039","142.7","216.11","659","60.0","33"
"08/06/12 10:44:29","157.9151","144.9","215.9","670","60.03","33"
"08/06/12 10:49:29","157.9264","144.7","215.62","671","60.07","34"
"08/06/12 10:54:28","157.9378","147.3","215.6","680","60.03","34"
"08/06/12 10:59:28","157.9493","149.4","217.26","689","60.03","34"
"08/06/12 11:04:29","157.961","149.0","216.95","679","60.03","34"
"08/06/12 11:09:29","157.9727","151.1","217.33","693","60.0","35"
"08/06/12 11:14:30","157.9845","151.6","217.13","699","60.03","35"
"08/06/12 11:19:29","157.9964","153.2","216.41","702","60.0","35"
"08/06/12 11:24:30","158.0084","154.3","217.25","700","60.0","35"
"08/06/12 11:29:30","158.0203","152.5","217.23","699","60.03","36"
"08/06/12 11:34:29","158.0323","155.8","216.26","712","60.0","35"
"08/06/12 11:39:28","158.0445","157.3","215.36","723","60.03","35"
"08/06/12 11:44:29","158.0568","156.8","215.6","723","60.03","36"
"08/06/12 11:49:29","158.0691","158.6","216.16","729","60.03","36"
"08/06/12 11:54:29","158.0815","159.2","216.17","732","60.03","35"
"08/06/12 11:59:28","158.0937","159.3","215.68","730","60.03","36"
"08/06/12 12:04:29","158.1061","159.5","216.08","730","60.03","37"
"08/06/12 12:09:29","158.1186","161.5","215.37","739","60.0","37"
"08/06/12 12:14:29","158.1308","155.8","215.39","720","60.0","37"
"08/06/12 12:19:30","158.1427","154.6","216.54","707","60.0","38"
"08/06/12 12:24:28","158.155","162.5","216.81","740","60.03","37"
"08/06/12 12:29:28","158.1676","162.9","215.63","744","60.0","37"
"08/06/12 12:34:30","158.1804","164.9","215.69","751","60.0","37"
"08/06/12 12:39:28","158.1931","163.1","216.51","742","60.0","37"
"08/06/12 12:44:29","158.2053","105.4","215.09","500","60.0","36"
"08/06/12 12:49:30","158.2148","35.1","212.92","112","60.0","35"
"08/06/12 12:54:29","158.2263","164.6","217.47","748","60.03","36"
"08/06/12 12:59:28","158.2389","164.8","216.52","754","60.03","36"
"08/06/12 13:04:28","158.2518","167.0","216.23","762","60.03","37"
"08/06/12 13:09:29","158.2631","83.7","213.01","411","60.03","36"
"08/06/12 13:14:29","158.2749","166.1","216.75","757","60.03","36"
"08/06/12 13:19:29","158.2871","141.3","217.27","653","60.0","36"
"08/06/12 13:24:29","158.299","157.1","217.15","719","60.0","36"
"08/06/12 13:29:29","158.3113","157.1","218.35","719","60.0","36"
"08/06/12 13:34:29","158.3228","128.7","216.8","595","60.03","36"
"08/06/12 13:39:28","158.33","69.9","214.54","349","60.03","34"
"08/06/12 13:44:29","158.3394","171.8","216.91","780","60.0","35"
"08/06/12 13:49:30","158.3515","148.6","216.2","686","60.03","36"
"08/06/12 13:54:28","158.3622","144.4","216.43","665","60.03","36"
"08/06/12 13:59:29","158.3728","137.0","215.84","632","60.03","36"
"08/06/12 14:04:28","158.3829","140.6","216.9","650","60.03","36"
"08/06/12 14:09:30","158.394","142.1","217.05","655","60.0","36"
"08/06/12 14:14:30","158.4049","133.1","216.12","617","60.03","37"
"08/06/12 14:19:29","158.4136","123.4","216.83","574","60.03","36"
"08/06/12 14:24:29","158.4225","123.2","217.04","577","60.0","36"
"08/06/12 14:29:30","158.4318","91.8","216.24","439","60.0","36"
"08/06/12 14:34:28","158.4417","105.8","215.57","500","60.03","37"
"08/06/12 14:39:29","158.4509","132.8","216.76","615","60.03","36"
"08/06/12 14:44:29","158.4601","79.8","216.07","392","60.03","37"
"08/06/12 14:49:29","158.4708","149.2","217.31","685","60.0","37"
"08/06/12 14:54:30","158.4822","144.7","216.5","670","60.03","38"
"08/06/12 14:59:29","158.4926","113.3","216.88","531","60.03","37"
"08/06/12 15:04:29","158.5027","113.4","216.32","534","60.03","38"
"08/06/12 15:09:30","158.5106","67.8","214.17","341","60.03","36"
"08/06/12 15:14:29","158.5165","49.2","213.08","92","60.0","35"
"08/06/12 15:19:30","158.5202","39.9","213.87","311","60.03","34"
"08/06/12 15:24:29","158.5241","42.9","213.44","404","60.03","33"
"08/06/12 15:29:29","158.5274","30.9","214.23","91","60.03","32"
"08/06/12 15:34:30","158.5298","35.0","213.87","201","60.03","32"
"08/06/12 15:39:28","158.5314","16.7","213.59","93","60.03","32"
"08/06/12 15:44:28","158.5329","15.7","214.1","23","60.03","31"
"08/06/12 15:49:29","158.5349","23.6","213.9","193","60.03","30"
"08/06/12 15:54:28","158.537","36.5","213.05","78","60.03","30"
"08/06/12 15:59:29","158.5386","13.7","213.45","5","60.03","30"
"08/06/12 16:04:30","158.5398","19.5","214.02","71","60.03","29"
"08/06/12 16:09:29","158.541","19.9","214.08","88","60.03","29"
"08/06/12 16:14:28","158.5425","14.0","214.62","29","60.0","29"
"08/06/12 16:19:29","158.5433","11.3","213.49","18","60.0","29"
"08/06/12 16:24:30","158.5441","0.0","213.5","4","60.03","28"
"08/06/12 16:29:30","158.5453","19.6","214.91","20","60.03","28"
"08/06/12 16:34:29","158.5472","19.8","214.78","22","60.03","28"
"08/06/12 16:39:29","158.5498","34.3","214.89","136","60.0","29"
"08/06/12 16:44:29","158.5498","30.9","213.66","269","60.03","29"
"08/06/12 16:49:29","158.5518","34.5","213.29","137","60.0","29"
"08/06/12 16:54:28","158.5536","12.7","213.59","42","60.03","29"
"08/06/12 16:59:30","158.5546","12.4","213.86","1","60.03","29"
"08/06/12 17:04:29","158.5554","0.0","214.09","228","60.03","29"
"08/06/12 17:09:30","158.556","12.7","214.77","161","60.03","28"
"08/06/12 17:14:30","158.5563","3.7","214.25","0","60.03","28"
"08/06/12 17:19:30","158.5568","15.2","214.93","10","60.03","28"
"08/06/12 17:24:29","158.5574","0.0","213.85","90","60.03","28"
"08/06/12 17:29:30","158.5581","12.3","213.26","1","60.03","28"
"08/06/12 17:34:29","158.5586","7.2","212.7","0","60.03","28"
"08/06/12 17:39:30","158.5592","28.6","213.45","287","60.03","28"
"08/06/12 17:44:30","158.5612","21.4","214.19","239","60.03","28"
"08/06/12 17:49:30","158.5634","37.1","214.13","232","60.03","29"
"08/06/12 17:54:29","158.566","24.8","214.73","70","60.03","29"
"08/06/12 17:59:29","158.5689","24.5","213.85","32","60.03","30"
"08/06/12 18:04:29","158.5706","13.2","214.41","7","60.07","30"
"08/06/12 18:09:30","158.572","12.2","214.35","74","60.0","30"
"08/06/12 18:14:30","158.5747","40.6","214.38","130","60.0","30"
"08/06/12 18:19:29","158.5765","29.6","214.13","169","60.03","31"
"08/06/12 18:24:29","158.5778","12.3","214.59","3","60.0","31"
"08/06/12 18:29:30","158.5789","13.8","214.2","15","60.0","31"
"08/06/12 18:34:30","158.5801","12.2","213.94","1","60.03","31"
"08/06/12 18:39:30","158.5809","15.3","214.19","12","60.03","30"
"08/07/12 06:44:33","158.5817","10.6","214.53","147","60.03","19"
"08/07/12 06:49:34","158.5824","13.6","213.91","12","60.07","19"
"08/07/12 06:54:34","158.5833","13.3","213.89","0","60.03","20"
"08/07/12 06:59:32","158.5844","16.3","212.32","37","60.0","20"
"08/07/12 07:04:34","158.5857","10.5","213.29","16","60.03","20"
"08/07/12 07:09:32","158.5873","31.2","214.82","250","60.03","20"
"08/07/12 07:14:32","158.5892","25.4","215.06","248","60.07","21"
"08/07/12 07:19:32","158.5912","32.5","214.48","251","60.03","22"
"08/07/12 07:24:33","158.5936","35.4","214.29","190","60.03","22"
"08/07/12 07:29:33","158.5961","30.6","214.89","115","60.03","22"
"08/07/12 07:34:33","158.599","42.2","215.13","138","60.03","23"
"08/07/12 07:39:34","158.6022","36.4","215.88","329","60.03","23"
"08/07/12 07:44:32","158.6056","44.2","215.52","350","60.03","24"
"08/07/12 07:49:34","158.6093","56.8","213.95","94","60.03","24"
"08/07/12 07:54:32","158.6133","64.4","214.11","311","60.07","25"
"08/07/12 07:59:33","158.6174","54.6","215.69","351","60.03","25"
"08/07/12 08:04:33","158.6214","56.4","214.18","170","60.03","25"
"08/07/12 08:09:33","158.6263","65.2","215.01","328","60.03","26"
"08/07/12 08:14:33","158.6315","69.0","214.3","345","60.0","26"
"08/07/12 08:19:34","158.6369","72.1","214.08","360","60.0","26"
"08/07/12 08:24:32","158.6427","75.7","215.66","375","60.03","26"
"08/07/12 08:29:33","158.6487","79.4","216.27","391","60.0","27"
"08/07/12 08:34:32","158.6547","79.6","216.17","390","60.03","27"
"08/07/12 08:39:33","158.6613","85.9","216.39","416","60.03","27"
"08/07/12 08:44:34","158.6681","89.4","215.74","431","60.03","27"
"08/07/12 08:49:34","158.6752","92.1","216.0","444","60.0","28"
"08/07/12 08:54:33","158.6825","95.1","217.19","455","60.03","28"
"08/07/12 08:59:32","158.69","97.9","215.81","466","60.0","29"
"08/07/12 09:04:32","158.6977","101.0","214.55","483","60.03","29"
"08/07/12 09:09:34","158.7058","104.5","215.68","495","60.0","29"
"08/07/12 09:14:33","158.714","107.0","216.59","508","60.0","30"
"08/07/12 09:19:34","158.7224","109.2","216.19","515","60.0","30"
"08/07/12 09:24:32","158.731","111.7","216.88","526","60.0","30"
"08/07/12 09:29:33","158.7398","114.0","216.19","536","60.0","30"
"08/07/12 09:34:32","158.7487","116.8","216.77","549","60.03","31"
"08/07/12 09:39:33","158.7579","119.2","216.23","561","60.03","31"
"08/07/12 09:44:33","158.7674","121.8","216.29","569","60.0","31"
"08/07/12 09:49:33","158.7769","124.1","217.58","569","60.03","31"
"08/07/12 09:54:33","158.7867","125.9","217.65","581","60.0","32"
"08/07/12 09:59:34","158.7965","128.2","217.82","594","60.03","32"
"08/07/12 10:04:33","158.8066","130.2","217.07","606","60.03","32"
"08/07/12 10:09:33","158.8167","132.8","218.41","614","60.0","32"
"08/07/12 10:14:32","158.8271","134.2","217.63","618","60.03","32"
"08/07/12 10:19:32","158.8377","136.4","218.19","628","60.0","33"
"08/07/12 10:24:33","158.8484","138.3","218.44","635","60.0","33"
"08/07/12 10:29:34","158.8592","140.5","215.7","652","60.0","33"
"08/07/12 10:34:32","158.8701","141.2","217.15","647","60.0","33"
"08/07/12 10:39:32","158.8811","142.1","216.86","656","60.03","34"
"08/07/12 10:44:32","158.8923","144.4","216.64","663","60.0","34"
"08/07/12 10:49:33","158.9036","146.1","217.34","668","60.0","34"
"08/07/12 10:54:33","158.9151","148.4","217.44","680","60.03","35"
"08/07/12 10:59:33","158.9267","149.5","218.21","684","60.03","35"
"08/07/12 11:04:34","158.9384","152.1","217.7","697","60.0","35"
"08/07/12 11:09:34","158.9502","152.0","220.87","684","60.0","35"
"08/07/12 11:14:34","158.9622","154.0","218.15","707","60.0","35"
"08/07/12 11:19:32","158.9742","154.8","218.84","704","60.03","35"
"08/07/12 11:24:33","158.9863","156.3","214.07","721","60.0","35"
"08/07/12 11:29:33","158.9984","156.6","216.1","723","60.0","35"
"08/07/12 11:34:34","159.0107","157.9","217.26","720","60.0","35"
"08/07/12 11:39:32","159.023","157.1","218.11","717","60.0","35"
"08/07/12 11:44:33","159.0353","158.0","217.44","721","60.03","36"
"08/07/12 11:49:36","159.0478","158.7","218.32","721","60.03","36"
"08/07/12 11:54:32","159.06","159.7","219.39","723","60.07","36"
"08/07/12 11:59:33","159.0724","160.5","219.15","731","60.07","36"
"08/07/12 12:04:33","159.0849","160.8","218.19","730","60.0","37"
"08/07/12 12:09:34","159.0974","159.1","217.66","727","60.0","37"
"08/07/12 12:14:34","159.1098","160.5","218.83","727","60.0","37"
"08/07/12 12:19:32","159.1223","161.7","217.8","735","60.0","38"
"08/07/12 12:24:33","159.1351","162.6","218.07","739","60.0","37"
"08/07/12 12:29:33","159.1478","164.7","217.77","747","60.0","37"
"08/07/12 12:34:33","159.1606","165.0","218.2","747","60.0","37"
"08/07/12 12:39:32","159.1733","165.1","218.1","745","60.0","37"
"08/07/12 12:44:32","159.1862","163.0","216.84","745","60.03","37"
"08/07/12 12:49:33","159.1989","161.5","218.28","734","60.03","37"
"08/07/12 12:54:33","159.2115","161.8","217.34","735","60.0","37"
"08/07/12 12:59:33","159.2241","161.7","218.67","735","60.07","37"
"08/07/12 13:04:33","159.2368","160.1","218.84","726","60.0","38"
"08/07/12 13:09:33","159.2493","161.7","218.27","731","60.03","37"
"08/07/12 13:14:34","159.2619","160.5","218.3","735","60.03","37"
"08/07/12 13:19:33","159.2744","160.4","218.01","728","60.03","37"
"08/07/12 13:24:34","159.2869","159.1","217.53","724","60.0","38"
"08/07/12 13:29:33","159.2992","157.3","218.56","715","60.0","38"
"08/07/12 13:34:34","159.3115","156.9","218.94","708","60.03","38"
"08/07/12 13:39:32","159.3236","155.0","219.23","702","60.03","38"
"08/07/12 13:44:34","159.3358","154.8","218.09","710","60.03","38"
"08/07/12 13:49:33","159.3477","154.0","219.0","703","60.0","38"
"08/07/12 13:54:33","159.3598","153.0","218.54","694","60.03","38"
"08/07/12 13:59:32","159.3716","152.2","218.44","697","60.03","38"
"08/07/12 14:04:32","159.3836","153.2","217.46","702","60.0","38"
"08/07/12 14:09:34","159.3955","151.5","218.19","688","60.03","38"
"08/07/12 14:14:33","159.4072","148.5","217.15","682","60.0","38"
"08/07/12 14:19:33","159.4188","149.7","216.96","689","60.03","37"
"08/07/12 14:24:34","159.4304","145.7","217.02","670","60.03","38"
"08/07/12 14:29:33","159.4416","144.2","217.57","665","60.0","38"
"08/07/12 14:34:33","159.4528","143.8","217.59","660","60.0","38"
"08/07/12 14:39:33","159.4639","142.5","217.29","652","60.03","37"
"08/07/12 14:44:33","159.475","139.7","218.04","645","60.03","38"
"08/07/12 14:49:33","159.4858","137.9","217.22","640","60.0","38"
"08/07/12 14:54:34","159.4965","135.9","216.7","631","60.03","38"
"08/07/12 14:59:34","159.5071","136.1","216.91","632","60.0","37"
"08/07/12 15:04:34","159.5177","134.3","216.21","627","60.03","36"
"08/07/12 15:09:33","159.5281","132.4","216.28","611","60.0","36"
"08/07/12 15:14:34","159.5383","128.2","216.12","600","60.03","36"
"08/07/12 15:19:33","159.5482","128.4","216.69","593","60.0","36"
"08/07/12 15:24:32","159.5581","126.8","216.76","589","60.03","35"
"08/07/12 15:29:34","159.568","124.8","217.27","583","60.0","35"
"08/07/12 15:34:32","159.5775","122.0","217.08","568","60.03","34"
"08/07/12 15:39:32","159.5869","119.3","217.06","555","60.0","34"
"08/07/12 15:44:33","159.5961","115.1","216.95","542","60.03","34"
"08/07/12 15:49:32","159.6048","111.6","216.54","529","60.03","35"
"08/07/12 15:54:34","159.6136","109.7","216.22","518","60.03","35"
"08/07/12 15:59:34","159.6219","107.5","216.19","508","60.03","35"
"08/07/12 16:04:33","159.6302","105.4","216.97","501","60.03","35"
"08/07/12 16:09:34","159.6383","102.4","215.94","487","60.0","35"
"08/07/12 16:14:33","159.6461","99.0","216.37","470","60.0","35"
"08/07/12 16:19:34","159.6537","96.3","216.0","458","60.0","34"
"08/07/12 16:24:33","159.661","92.9","215.61","449","60.0","34"
"08/07/12 16:29:34","159.6682","90.7","215.41","439","60.03","34"
"08/07/12 16:34:33","159.6751","87.7","215.08","427","60.03","34"
"08/07/12 16:39:32","159.6818","84.8","214.72","416","60.0","33"
"08/07/12 16:49:32","159.6945","78.2","215.49","383","60.03","32"
"08/07/12 16:54:32","159.7004","74.6","215.32","371","60.03","32"
"08/07/12 16:59:33","159.7061","70.7","215.41","356","60.03","32"
"08/07/12 17:04:33","159.7114","66.8","215.24","337","60.03","32"
"08/07/12 17:09:33","159.7165","63.3","215.23","323","60.03","32"
"08/07/12 17:14:34","159.7213","67.7","215.35","222","60.03","32"
"08/07/12 17:19:33","159.7252","41.8","215.96","289","60.03","32"
"08/07/12 17:24:33","159.7292","46.6","213.82","121","60.0","31"
"08/07/12 17:29:34","159.7331","46.1","214.86","98","60.03","31"
"08/07/12 17:34:33","159.7368","41.4","214.5","269","60.0","31"
"08/07/12 17:39:33","159.7401","36.8","214.35","169","60.03","30"
"08/07/12 17:44:33","159.7433","35.7","214.59","84","60.03","30"
"08/07/12 17:49:32","159.7461","29.8","214.48","287","60.03","30"
"08/07/12 17:54:33","159.7486","35.4","214.34","264","60.03","30"
"08/07/12 17:59:33","159.7508","20.8","214.06","18","60.03","30"
"08/07/12 18:04:32","159.7529","26.0","214.73","272","60.03","30"
"08/07/12 18:09:33","159.7546","15.5","214.44","31","60.0","29"
"08/07/12 18:14:32","159.7561","10.7","213.96","231","60.0","30"
"08/07/12 18:19:33","159.7574","22.2","213.7","267","60.03","30"
"08/07/12 18:24:33","159.7586","13.0","214.71","17","60.03","29"
"08/07/12 18:29:33","159.7595","16.2","213.67","9","60.03","29"
"08/07/12 18:34:34","159.7602","0.0","214.08","0","60.03","29"
"08/07/12 18:39:33","159.7609","4.0","214.85","0","60.07","29"
"08/07/12 18:44:33","159.7614","0.0","214.33","0","60.03","29"
"08/07/12 18:49:34","159.7619","0.0","213.81","0","60.03","28"
"08/07/12 18:54:33","159.7625","0.0","214.12","0","60.03","28"
"08/07/12 18:59:34","159.763","0.0","213.76","0","60.03","28"
"08/07/12 19:04:33","159.7637","0.4","213.28","58","60.03","28"
"08/07/12 19:09:36","159.7645","12.2","212.99","30","60.0","28"
"08/07/12 19:14:32","159.7651","0.0","212.63","0","60.0","27"
"08/07/12 19:19:33","159.7654","0.0","213.52","0","60.0","27"
"08/07/12 19:24:33","159.7659","13.5","213.16","0","60.0","27"
"08/08/12 06:44:38","159.7668","0.0","213.19","0","60.03","18"
"08/08/12 06:49:37","159.7671","0.0","213.94","0","60.03","18"
"08/08/12 06:54:37","159.7677","0.0","212.79","0","60.0","18"
"08/08/12 06:59:37","159.7682","0.0","214.25","0","60.03","18"
"08/08/12 07:04:37","159.7688","13.4","213.97","3","60.03","18"
"08/08/12 07:09:37","159.7695","2.9","214.49","226","60.03","19"
"08/08/12 07:14:37","159.7703","13.9","214.62","209","60.0","19"
"08/08/12 07:19:38","159.7711","0.9","215.22","22","60.03","19"
"08/08/12 07:24:36","159.7719","14.1","213.59","87","60.07","19"
"08/08/12 07:29:37","159.7732","15.9","213.9","154","60.0","19"
"08/08/12 07:34:37","159.7759","48.6","214.6","125","60.03","20"
"08/08/12 07:39:37","159.7792","45.8","213.47","311","60.03","21"
"08/08/12 07:44:37","159.7822","32.9","213.43","86","60.03","22"
"08/08/12 07:49:37","159.7846","16.4","212.83","231","60.0","22"
"08/08/12 07:54:37","159.7867","32.9","213.61","246","60.03","22"
"08/08/12 07:59:37","159.7886","11.8","213.1","16","60.03","22"
"08/08/12 08:04:38","159.7899","19.4","213.62","249","60.03","23"
"08/08/12 08:09:38","159.7909","14.9","213.24","158","60.03","23"
"08/08/12 08:14:36","159.7917","14.2","212.73","0","60.03","22"
"08/08/12 08:19:37","159.7926","13.3","213.79","19","60.03","22"
"08/08/12 08:24:37","159.7939","25.6","213.55","72","60.0","23"
"08/08/12 08:29:37","159.7952","15.1","212.9","58","60.03","23"
"08/08/12 08:34:37","159.7976","31.9","213.21","217","60.0","23"
"08/08/12 08:39:37","159.7998","16.6","213.03","122","60.03","23"
"08/08/12 08:44:37","159.8018","8.2","211.5","222","60.03","24"
"08/08/12 08:49:36","159.8028","11.0","213.84","25","60.03","24"
"08/08/12 08:54:36","159.8039","10.9","213.65","42","60.03","24"
"08/08/12 08:59:37","159.8046","0.0","213.47","0","60.0","24"
"08/08/12 09:04:37","159.805","11.2","213.84","2","60.03","23"
"08/08/12 09:09:36","159.806","15.2","213.24","60","60.03","24"
"08/08/12 09:14:41","159.8074","21.8","213.3","15","60.03","24"
"08/08/12 09:19:36","159.8094","35.3","213.94","264","60.0","24"
"08/08/12 09:24:36","159.8116","25.3","213.47","132","60.0","24"
"08/08/12 09:29:37","159.814","33.2","213.64","191","60.0","24"
"08/08/12 09:34:37","159.8172","47.1","214.05","346","60.0","24"
"08/08/12 09:39:37","159.8215","111.4","215.64","529","60.0","25"
"08/08/12 09:44:38","159.8306","44.2","214.69","407","60.0","26"
"08/08/12 09:49:37","159.8346","54.5","213.77","206","60.03","27"
"08/08/12 09:54:36","159.8384","36.8","213.44","337","60.0","27"
"08/08/12 09:59:37","159.8418","42.1","213.47","250","60.03","28"
"08/08/12 10:04:36","159.8446","42.2","213.18","257","60.03","28"
"08/08/12 10:09:36","159.8492","97.0","213.92","470","60.0","28"
"08/08/12 10:14:36","159.8546","63.9","213.98","325","60.03","28"
"08/08/12 10:19:37","159.8594","65.1","214.72","330","60.0","29"
"08/08/12 10:24:37","159.8651","69.2","214.86","343","60.03","29"
"08/08/12 10:29:37","159.8711","83.3","214.93","407","60.03","29"
"08/08/12 10:34:36","159.8761","50.1","214.08","350","60.0","29"
"08/08/12 10:39:37","159.8788","37.4","213.97","242","60.0","29"
"08/08/12 10:44:38","159.8816","34.7","213.39","152","60.03","29"
"08/08/12 10:49:38","159.8835","25.0","213.48","216","60.07","28"
"08/08/12 10:54:36","159.8853","28.2","213.97","193","60.0","28"
"08/08/12 10:59:37","159.8867","14.1","214.3","12","60.03","28"
"08/08/12 11:04:37","159.888","15.4","214.86","3","60.0","27"
"08/08/12 11:09:36","159.8893","27.3","213.77","81","60.03","27"
"08/08/12 11:14:37","159.8912","25.2","213.91","108","60.03","26"
"08/08/12 11:19:37","159.8938","38.8","214.61","198","60.03","26"
"08/08/12 11:24:36","159.8977","42.1","214.69","402","60.03","26"
"08/08/12 11:29:37","159.9011","43.5","213.96","87","60.03","27"
"08/08/12 11:34:37","159.9043","35.5","213.41","102","60.0","27"
"08/08/12 11:39:37","159.9073","36.4","213.27","148","60.03","27"
"08/08/12 11:44:37","159.9101","25.8","212.61","203","60.03","26"
"08/08/12 11:49:38","159.9122","25.7","214.06","83","60.03","26"
"08/08/12 11:54:36","159.9151","50.7","213.67","134","60.03","26"
"08/08/12 11:59:36","159.9184","49.1","213.95","323","60.03","26"
"08/08/12 12:04:36","159.922","39.9","214.18","277","60.03","27"
"08/08/12 12:09:36","159.9255","44.0","214.1","299","60.0","27"
"08/08/12 12:14:37","159.9298","61.8","214.7","317","60.03","27"
"08/08/12 12:19:36","159.9354","78.4","216.1","384","60.0","27"
"08/08/12 12:24:37","159.9406","63.5","214.67","248","60.0","27"
"08/08/12 12:29:37","159.9447","60.6","215.26","400","60.03","28"
"08/08/12 12:34:37","159.9501","76.1","215.02","378","60.03","28"
"08/08/12 12:39:36","159.9571","99.3","214.21","477","60.0","29"
"08/08/12 12:44:36","159.9639","80.9","214.41","397","60.03","29"
"08/08/12 12:49:36","159.9703","72.9","214.16","367","60.03","29"
"08/08/12 12:54:36","159.9757","75.0","214.62","373","60.03","29"
"08/08/12 12:59:37","159.9833","123.8","216.5","582","60.03","30"
"08/08/12 13:04:37","159.994","136.5","216.24","637","60.03","32"
"08/08/12 13:09:37","160.0039","89.9","215.59","437","60.03","32"
"08/08/12 13:14:36","160.0123","97.6","215.91","466","60.03","32"
"08/08/12 13:19:37","160.0179","66.7","214.54","337","60.03","32"
"08/08/12 13:24:38","160.022","64.7","214.97","340","60.0","32"
"08/08/12 13:29:38","160.0257","48.5","215.25","328","60.03","31"
"08/08/12 13:34:37","160.0286","29.1","214.94","243","60.0","30"
"08/08/12 13:39:37","160.031","21.2","214.67","205","60.03","30"
"08/08/12 13:44:37","160.0329","33.6","214.91","136","60.0","29"
"08/08/12 13:49:38","160.035","27.6","214.68","208","60.03","28"
"08/08/12 13:54:38","160.0374","35.6","214.59","158","60.03","28"
"08/08/12 13:59:36","160.0398","26.5","214.14","137","60.03","27"
"08/08/12 14:04:37","160.0424","33.5","214.19","183","60.03","27"
"08/08/12 14:09:37","160.0455","40.6","214.18","291","60.03","27"
"08/08/12 14:14:36","160.0484","42.8","214.03","271","60.03","27"
"08/08/12 14:19:37","160.0516","47.7","214.51","335","60.03","27"
"08/08/12 14:24:37","160.0547","34.5","215.08","109","60.03","26"
"08/08/12 14:29:37","160.0578","35.5","215.14","94","60.03","27"
"08/08/12 14:34:38","160.0611","46.0","214.91","361","60.0","26"
"08/08/12 14:39:36","160.0641","34.6","214.53","127","60.03","26"
"08/08/12 14:44:37","160.0672","43.5","214.82","151","60.03","26"
"08/08/12 14:49:36","160.0703","49.0","214.54","112","60.0","26"
"08/08/12 14:54:36","160.0732","38.5","214.41","161","60.0","26"
"08/08/12 14:59:37","160.076","41.1","213.26","296","60.0","26"
"08/08/12 15:04:37","160.0788","45.7","213.33","105","60.03","26"
"08/08/12 15:09:36","160.0823","42.9","213.81","171","60.0","26"
"08/08/12 15:14:36","160.0861","47.0","213.97","327","60.03","26"
"08/08/12 15:19:37","160.0895","34.4","214.02","200","60.0","26"
"08/08/12 15:24:37","160.0925","43.0","214.11","245","60.0","26"
"08/08/12 15:29:38","160.0954","43.1","214.14","95","60.03","26"